Regional Weather Roundup
Issued by NWS

Home | Current Version | Previous Version | Graphics & Text | Print | Product List | Glossary On
Versions: 1 2 3 4 5 6 7 8 9 10 11 12 13 14 15 16 17 18 19 20 21 22 23 24 25 26 27
000
ASUS45 KCYS 220910
RWRWY

WYOMING REGIONAL WEATHER ROUNDUP
NATIONAL WEATHER SERVICE CHEYENNE WY
300 AM MDT THU JUN 22 2017

NOTE:  "FAIR" INDICATES FEW OR NO CLOUDS BELOW 12,000 FEET
WITH NO SIGNIFICANT WEATHER AND/OR OBSTRUCTIONS TO VISIBILITY.

WYZ001-221000-
YELLOWSTONE NATIONAL PARK

CITY           SKY/WX    TMP DP  RH WIND       PRES   REMARKS
LK YELLOWSTONE   N/A     45  33  63 CALM      30.16F
W YELLOWSTONE  NOT AVBL

$$
WYZ002>013-054>058-071-098>099-221000-
NORTHERN WYOMING

CITY           SKY/WX    TMP DP  RH WIND       PRES   REMARKS
JACKSON        FAIR      48  39  71 N6        30.07R
CODY           FAIR      62  25  24 N13G21    30.04R
GREYBULL       FAIR      71  24  17 NW31G41   29.86R
WORLAND        FAIR      65  41  41 NW7       29.89R
SHERIDAN       FAIR      60  42  51 NW13G18   29.92R
BUFFALO        FAIR      65  38  36 NW21G31   29.94S
GILLETTE       CLOUDY    64  45  49 W12       29.87R
NEWCASTLE      FAIR      61  45  55 N8        29.82R

$$
WYZ014>020-022>026-101>103-221000-
CENTRAL WYOMING

CITY           SKY/WX    TMP DP  RH WIND       PRES   REMARKS
BIG PINEY      FAIR      59  33  37 W6        30.10S
PINEDALE       FAIR      45  43  93 W3        30.11F
DUBOIS         FAIR      52  34  50 NW14      30.07S
LANDER         FAIR      64  38  38 S5        29.98R
RIVERTON       FAIR      68  42  38 N17G25    29.94S
CASPER         FAIR      58  50  75 W5        29.93R
DOUGLAS        FAIR      60  51  72 NW10      29.86S

$$
WYZ021-027>030-104>119-221000-
SOUTHERN WYOMING

CITY           SKY/WX    TMP DP  RH WIND       PRES   REMARKS
EVANSTON       FAIR      60  44  55 SW6       30.13S
KEMMERER         N/A     55  36  47 CALM      30.13S
FORT BRIDGER   FAIR      63  41  44 W12       30.14R
ROCK SPRINGS   FAIR      61  39  44 W10       30.08F
DIXON          FAIR      53  41  64 E3        30.10R
RAWLINS        FAIR      63  39  41 SW15      30.03F
SARATOGA       FAIR      61  36  39 SW6       30.07S
LARAMIE        FAIR      58  36  43 SW9       30.04F
CHEYENNE       FAIR      71  36  27 W13       29.95S
TORRINGTON     FAIR      67  50  54 NW9       29.74S
PINE BLUFFS    FAIR      64  41  42 S7        29.87S

$$




USA.gov is the U.S. government's official web portal to all federal, state and local government web resources and services.